Home   Weather   Dayton   Past weeks
Flag for USA

Past Weather in Dayton, Ohio, USA — Yesterday and Last 2 Weeks

Now
48 °F

Clear.


Feels Like: 42 °F
Forecast: 51 / 40 °F
Wind: 16 mph from West

Location: Dayton / Wright-Patterson Air Force Base

Current Time: Mar 30, 2020 at 6:55:20 am

Latest Report: Mar 30, 2020 at 5:56 am


Visibility: 10 mi

Pressure: 30.01 "Hg

Humidity: 58%

Dew Point: 34 °F

Location of DaytonLocation

Past Weather in Dayton — Graph

°F

Dayton Temperature Yesterday

Maximum temperature yesterday: 66 °F (at 12:27 am)
Minimum temperature yesterday: 53 °F (at 10:56 pm)
Average temperature yesterday: 63 °F

High & Low Weather Summary for the Past Weeks

 TemperatureHumidityPressure
High75 °F (Mar 28, 12:56 pm)100% (Mar 18, 4:42 pm)30.58 "Hg (Mar 18, 4:42 pm)
Low24 °F (Mar 22, 6:56 am)36% (Mar 30, 1:56 am)29.62 "Hg (Mar 29, 4:56 am)
Average49 °F78%30.09 "Hg
* Reported Mar 15 4:56 am — Mar 30 4:56 am, Dayton. Weather by CustomWeather, © 2020

Note: Actual official high and low records may vary slightly from our data, if they occured in-between our weather recording intervals... More about our weather records

Dayton Weather History for the Previous 24 Hours

Scroll right to see more
 ConditionsComfort  
Time TempWeatherWind HumidityBarometerVisibility
4:56 am
Mon, Mar 30
50 °FClear.16 mph51%29.97 "Hg10 mi
3:56 am51 °FClear.16 mph44%29.97 "Hg10 mi
2:56 am52 °FClear.16 mph37%29.97 "Hg10 mi
1:56 am53 °FClear.18 mph36%29.96 "Hg10 mi
12:56 am54 °FClear.13 mph39%29.97 "Hg10 mi
11:56 pm
Sun, Mar 29
55 °FClear.14 mph44%29.97 "Hg10 mi
10:56 pm53 °FClear.10 mph57%29.96 "Hg10 mi
9:56 pm57 °FPassing clouds.13 mph47%29.95 "Hg10 mi
7:56 pm60 °FSunny.15 mph45%29.90 "Hg10 mi
6:56 pm62 °FScattered clouds.28 mph43%29.87 "Hg10 mi
5:56 pm63 °FScattered clouds.26 mph42%29.86 "Hg10 mi
4:56 pm64 °FSunny.24 mph43%29.83 "Hg10 mi
3:56 pm64 °FSunny.25 mph43%29.82 "Hg10 mi
2:56 pm62 °FPassing clouds.31 mph44%29.80 "Hg10 mi
1:56 pm64 °FScattered clouds.31 mph45%29.77 "Hg10 mi
12:56 pm62 °FPartly sunny.29 mph46%29.75 "Hg10 mi
11:56 am65 °FPartly sunny.33 mph41%29.71 "Hg10 mi
10:56 am66 °FScattered clouds.28 mph46%29.69 "Hg10 mi
9:56 am64 °FPassing clouds.24 mph56%29.66 "Hg10 mi
9:41 am64 °FPassing clouds.30 mph56%29.66 "Hg10 mi
8:56 am64 °FScattered clouds.17 mph68%29.65 "Hg10 mi
8:06 am64 °FScattered clouds.17 mph78%29.66 "Hg10 mi
7:56 am65 °FPartly sunny.20 mph76%29.66 "Hg10 mi
6:56 am66 °FPassing clouds.20 mph75%29.62 "Hg10 mi
Weather by CustomWeather, © 2020

See weather overview

Advertising